Flag for Germany Weather past 2 weeks in Minden, North Rhine-Westphalia, Germany

Now
32 °F

Chilly.


Feels Like: 22 °F
Forecast: 25 / 32 °F
Wind: 15 mph from East

Location: Bueckeburg

Current Time: Dec 27, 2014 at 5:37:12 PM

Latest Report: Dec 27, 2014 at 4:20 PM


Visibility: N/A

Pressure: 29.65 "Hg

Humidity: 64%

Dew point: 21 °F

Location of MindenLocation

Historic Weather in Minden — Graph

°F

Minden temperature yesterday

Maximum temperature yesterday: 37 °F (at 12:20 AM)
Minimum temperature yesterday: 30 °F (at 8:20 AM)
Average temperature yesterday: 34 °F

Past Weeks' High & Low Weather Summary

 TemperatureHumidityPressure
High54 °F (Dec 18, 2:20 PM)100% (Dec 26, 9:20 AM)30.36 "Hg (Dec 26, 9:20 AM)
Low30 °F (Dec 26, 8:20 AM)61% (Dec 15, 8:20 AM)29.33 "Hg (Dec 12, 4:20 PM)
Average43 °F85%29.91 "Hg
* Reported Dec 12 4:20 PM — Dec 27 4:20 PM, Minden, Weather by CustomWeather, © 2014

Note: Actual official high and low records may vary slightly from our data, if they occured in-between our weather recording intervals... More about our weather records

Advertising

Minden weather history for previous 24 hours

 ConditionsComfort  
Time TempWeatherWind HumidityBarometerVisibility
4:20 PM
Dec 27
32 °FChilly.15 mph64%29.65 "HgN/A
3:20 PM32 °FChilly.16 mph69%29.62 "HgN/A
2:20 PM32 °FChilly.15 mph80%29.62 "HgN/A
1:20 PM32 °FChilly.13 mph80%29.62 "HgN/A
12:20 PM36 °FChilly.13 mph65%29.65 "HgN/A
11:20 AM36 °FChilly.9 mph65%29.65 "HgN/A
10:20 AM34 °FChilly.17 mph75%29.68 "HgN/A
9:20 AM34 °FChilly.16 mph75%29.71 "HgN/A
8:20 AM34 °FChilly.15 mph75%29.74 "HgN/A
7:20 AM34 °FChilly.10 mph75%29.77 "HgN/A
6:20 AM32 °FChilly.3 mph87%29.80 "HgN/A
5:20 AM32 °FChilly.9 mph87%29.86 "HgN/A
4:20 AM32 °FChilly.13 mph87%29.92 "HgN/A
3:20 AM32 °FChilly.8 mph87%29.98 "HgN/A
2:20 AM32 °FChilly.8 mph87%30.01 "Hg6 mi
1:20 AM32 °FChilly.5 mph87%30.04 "Hg4 mi
12:20 AM32 °FChilly.3 mph87%30.09 "Hg4 mi
11:20 PM
Dec 26
34 °FChilly.6 mph87%30.12 "Hg4 mi
10:20 PM34 °FChilly.7 mph87%30.15 "Hg4 mi
9:20 PM36 °FChilly.6 mph87%30.21 "Hg4 mi
8:20 PM34 °FChilly.2 mph87%30.24 "Hg5 mi
7:20 PM36 °FChilly.3 mph87%30.24 "Hg6 mi
6:20 PM36 °FChilly.2 mph87%30.27 "Hg5 mi
5:20 PM34 °FChilly.5 mph87%30.30 "Hg6 mi
Weather by CustomWeather, © 2014

See weather overviewHow to use our weather pages